Weather History for Wise, VA

Change the Weather History Date:

Wednesday, April 9, 2014

  Actual Average Record
Temperature  
Mean Temperature 49 °F -  
Max Temperature 57 °F 60 °F 78 °F (2001)
Min Temperature 41 °F 41 °F 24 °F (2007)
Degree Days  
Heating Degree Days 16    
Moisture  
Dew Point 33 °F    
Average Humidity 59    
Maximum Humidity 100    
Minimum Humidity 29    
Precipitation  
Precipitation 0.04 in - - ()
Sea Level Pressure  
Sea Level Pressure 29.97 in    
Wind  
Wind Speed 7 mph (WNW)    
Max Wind Speed 14 mph    
Max Gust Speed 25 mph    
Visibility 10 miles    
Events Rain    
Averages and records for this station are not official NWS values.
T = Trace of Precipitation, MM = Missing Value Source: NWS Daily Summary

Daily Weather History Graph

Daily Weather History Graph

Search for Another Location

Airport:

Trip Planner

Search our weather history database for the weather conditions in past years. The results will help you decide how hot, cold, wet, or windy it might be!

Date:

Astronomy

Apr. 09, 2014 Rise Set
Actual Time 7:04 AM EDT 7:59 PM EDT
Civil Twilight 6:37 AM EDT 8:26 PM EDT
Nautical Twilight 6:06 AM EDT 8:57 PM EDT
Astronomical Twilight 5:34 AM EDT 9:30 PM EDT
Moon 2:53 PM EDT (4/9) 3:45 AM EDT (4/9)
Length of Visible Light 13h 48m
Length of Day
12h 55m
Waxing Gibbous, 71% of the Moon is Illuminated
Apr 9
Waxing Gibbous
Apr 15
Full
Apr 22
Last Quarter
Apr 29
New
May 6
First Quarter

Hourly Weather History & Observations

Time (EDT) Temp. Windchill Dew Point Humidity Pressure Visibility Wind Dir Wind Speed Gust Speed Precip Events Conditions
12:15 AM 46.4 °F 45.2 °F 33.8 °F 62% 29.80 in 10.0 mi NNW 3.5 mph - N/A   Overcast
12:35 AM 46.4 °F 45.2 °F 32.0 °F 57% 29.81 in 10.0 mi NNW 3.5 mph - N/A   Mostly Cloudy
12:55 AM 46.4 °F 45.2 °F 33.8 °F 62% 29.81 in 10.0 mi NNW 3.5 mph - N/A   Overcast
1:15 AM 46.4 °F 44.3 °F 33.8 °F 62% 29.81 in 10.0 mi NW 4.6 mph - N/A   Overcast
1:35 AM 46.4 °F 44.3 °F 33.8 °F 62% 29.81 in 10.0 mi NW 4.6 mph - N/A   Overcast
1:55 AM 46.4 °F 43.5 °F 33.8 °F 62% 29.81 in 10.0 mi NW 5.8 mph - N/A   Overcast
2:15 AM 46.4 °F 43.5 °F 33.8 °F 62% 29.81 in 10.0 mi NW 5.8 mph - N/A   Overcast
2:35 AM 46.4 °F 43.5 °F 33.8 °F 62% 29.81 in 10.0 mi WNW 5.8 mph - N/A   Overcast
2:55 AM 46.4 °F 45.2 °F 35.6 °F 66% 29.81 in 10.0 mi NNW 3.5 mph - N/A   Overcast
3:15 AM 46.4 °F 44.3 °F 35.6 °F 66% 29.81 in 10.0 mi NNW 4.6 mph - N/A Rain Rain
3:35 AM 44.6 °F 41.4 °F 37.4 °F 76% 29.81 in 10.0 mi NW 5.8 mph - N/A   Overcast
3:55 AM 44.6 °F 41.4 °F 37.4 °F 76% 29.82 in 10.0 mi NW 5.8 mph - N/A   Overcast
4:15 AM 44.6 °F 40.2 °F 37.4 °F 76% 29.82 in 10.0 mi WNW 8.1 mph - N/A   Overcast
4:35 AM 44.6 °F 40.2 °F 37.4 °F 76% 29.83 in 10.0 mi NW 8.1 mph - N/A   Overcast
4:55 AM 44.6 °F 40.7 °F 39.2 °F 81% 29.83 in 10.0 mi NW 6.9 mph - N/A   Overcast
5:15 AM 44.6 °F 40.7 °F 41.0 °F 87% 29.83 in 10.0 mi WNW 6.9 mph - N/A   Overcast
5:35 AM 44.6 °F 40.2 °F 42.8 °F 93% 29.84 in 10.0 mi West 8.1 mph - N/A   Overcast
5:55 AM 44.6 °F 41.4 °F 42.8 °F 93% 29.85 in 10.0 mi WNW 5.8 mph - N/A   Light Drizzle
6:15 AM 42.8 °F 38.0 °F 42.8 °F 100% 29.87 in 10.0 mi WNW 8.1 mph - N/A Rain Rain
6:35 AM 42.8 °F 39.3 °F 42.8 °F 100% 29.88 in 10.0 mi West 5.8 mph - N/A   Drizzle
6:55 AM 42.8 °F 39.3 °F 42.8 °F 100% 29.89 in 7.0 mi WNW 5.8 mph - 0.02 in Rain Light Rain
7:15 AM 42.8 °F 39.3 °F 42.8 °F 100% 29.90 in 5.0 mi West 5.8 mph - 0.02 in Rain Rain
7:35 AM 42.8 °F 40.1 °F 42.8 °F 100% 29.91 in 10.0 mi West 4.6 mph - 0.02 in   Overcast
7:55 AM 42.8 °F 39.3 °F 42.8 °F 100% 29.92 in 7.0 mi NW 5.8 mph - 0.02 in   Overcast
8:15 AM 42.8 °F 39.3 °F 42.8 °F 100% 29.93 in 7.0 mi NW 5.8 mph - N/A   Overcast
8:35 AM 42.8 °F 38.6 °F 42.8 °F 100% 29.94 in 7.0 mi WNW 6.9 mph - N/A   Overcast
8:55 AM 42.8 °F 37.5 °F 42.8 °F 100% 29.95 in 7.0 mi WNW 9.2 mph - N/A   Overcast
9:15 AM 44.6 °F 40.2 °F 42.8 °F 93% 29.95 in 7.0 mi WNW 8.1 mph - N/A   Overcast
9:35 AM 44.6 °F 40.2 °F 42.8 °F 93% 29.96 in 7.0 mi WNW 8.1 mph - N/A   Overcast
9:55 AM 44.6 °F 39.2 °F 42.8 °F 93% 29.97 in 7.0 mi NW 10.4 mph 16.1 mph N/A   Overcast
10:15 AM 44.6 °F 38.4 °F 42.8 °F 93% 29.98 in 10.0 mi WNW 12.7 mph 17.3 mph N/A   Overcast
10:35 AM 46.4 °F 41.1 °F 41.0 °F 81% 29.98 in 10.0 mi NNW 11.5 mph - N/A   Mostly Cloudy
10:55 AM 44.6 °F 40.2 °F 35.6 °F 71% 30.00 in 10.0 mi WNW 8.1 mph 17.3 mph N/A   Mostly Cloudy
11:15 AM 50.0 °F - 35.6 °F 58% 30.01 in 10.0 mi West 12.7 mph - N/A   Mostly Cloudy
11:35 AM 50.0 °F - 35.6 °F 58% 30.02 in 10.0 mi WNW 12.7 mph - N/A   Mostly Cloudy
11:55 AM 50.0 °F - 33.8 °F 54% 30.02 in 10.0 mi WNW 11.5 mph 16.1 mph N/A   Scattered Clouds
12:15 PM 50.0 °F - 32.0 °F 50% 30.03 in 10.0 mi West 11.5 mph 17.3 mph N/A   Mostly Cloudy
12:35 PM 51.8 °F - 32.0 °F 47% 30.03 in 10.0 mi WNW 10.4 mph 16.1 mph N/A   Mostly Cloudy
12:55 PM 50.0 °F - 32.0 °F 50% 30.02 in 10.0 mi WNW 9.2 mph - N/A   Overcast
1:15 PM 51.8 °F - 32.0 °F 47% 30.02 in 10.0 mi West 11.5 mph 16.1 mph N/A   Overcast
1:35 PM 51.8 °F - 32.0 °F 47% 30.03 in 10.0 mi NW 12.7 mph 21.9 mph N/A   Overcast
1:55 PM 51.8 °F - 30.2 °F 44% 30.03 in 10.0 mi NW 10.4 mph 17.3 mph N/A   Mostly Cloudy
2:15 PM 53.6 °F - 32.0 °F 44% 30.03 in 10.0 mi NNW 10.4 mph 16.1 mph N/A   Scattered Clouds
2:35 PM 53.6 °F - 30.2 °F 41% 30.03 in 10.0 mi West 11.5 mph 18.4 mph N/A   Scattered Clouds
2:55 PM 53.6 °F - 28.4 °F 38% 30.03 in 10.0 mi WNW 11.5 mph 20.7 mph N/A   Scattered Clouds
3:15 PM 55.4 °F - 30.2 °F 38% 30.02 in 10.0 mi NNW 11.5 mph 19.6 mph N/A   Scattered Clouds
3:35 PM 57.2 °F - 26.6 °F 31% 30.03 in 10.0 mi West 10.4 mph 20.7 mph N/A   Mostly Cloudy
3:55 PM 55.4 °F - 26.6 °F 33% 30.03 in 10.0 mi West 9.2 mph 19.6 mph N/A   Scattered Clouds
4:15 PM 55.4 °F - 24.8 °F 31% 30.02 in 10.0 mi West 11.5 mph 25.3 mph N/A   Clear
4:35 PM 55.4 °F - 26.6 °F 33% 30.03 in 10.0 mi West 10.4 mph 21.9 mph N/A   Scattered Clouds
4:55 PM 53.6 °F - 24.8 °F 33% 30.03 in 10.0 mi WNW 11.5 mph - N/A   Scattered Clouds
5:15 PM 55.4 °F - 26.6 °F 33% 30.03 in 10.0 mi NNW 5.8 mph - N/A   Mostly Cloudy
5:35 PM 55.4 °F - 23.0 °F 29% 30.04 in 10.0 mi WNW 13.8 mph - N/A   Overcast
5:55 PM 55.4 °F - 24.8 °F 31% 30.04 in 10.0 mi NW 9.2 mph 16.1 mph N/A   Overcast
6:15 PM 57.2 °F - 24.8 °F 29% 30.05 in 10.0 mi WNW 11.5 mph 18.4 mph N/A   Overcast
6:35 PM 53.6 °F - 23.0 °F 30% 30.05 in 10.0 mi West 12.7 mph 17.3 mph N/A   Scattered Clouds
6:55 PM 53.6 °F - 24.8 °F 33% 30.05 in 10.0 mi WNW 9.2 mph - N/A   Clear
7:15 PM 53.6 °F - 23.0 °F 30% 30.07 in 10.0 mi WNW 6.9 mph - N/A   Scattered Clouds
7:35 PM 51.8 °F - 24.8 °F 35% 30.07 in 10.0 mi West 4.6 mph - N/A   Mostly Cloudy
7:50 PM 51.8 °F - 23.0 °F 33% 30.07 in 10.0 mi WNW 6.9 mph - N/A   Scattered Clouds
8:15 PM 50.0 °F - 23.0 °F 35% 30.08 in 10.0 mi WNW 8.1 mph - N/A   Clear
8:35 PM 50.0 °F - 23.0 °F 35% 30.09 in 10.0 mi WNW 6.9 mph - N/A   Clear
8:55 PM 50.0 °F - 23.0 °F 35% 30.09 in 10.0 mi WNW 3.5 mph - N/A   Clear
9:15 PM 48.2 °F - 24.8 °F 40% 30.10 in 10.0 mi WNW 4.6 mph - N/A   Clear
9:35 PM 50.0 °F - 24.8 °F 37% 30.11 in 10.0 mi WNW 4.6 mph - N/A   Clear
9:55 PM 48.2 °F - 24.8 °F 40% 30.12 in 10.0 mi WNW 4.6 mph - N/A   Clear
10:15 PM 48.2 °F - 24.8 °F 40% 30.14 in 10.0 mi WNW 3.5 mph - N/A   Clear
10:35 PM 46.4 °F - 24.8 °F 43% 30.14 in 10.0 mi Calm Calm - N/A   Clear
10:55 PM 46.4 °F - 24.8 °F 43% 30.14 in 10.0 mi Calm Calm - N/A   Clear
11:15 PM 41.0 °F 38.0 °F 26.6 °F 57% 30.14 in 10.0 mi South 4.6 mph - N/A   Clear
11:35 PM 44.6 °F 43.1 °F 26.6 °F 49% 30.14 in 10.0 mi South 3.5 mph - N/A   Clear
11:55 PM 42.8 °F 41.1 °F 26.6 °F 53% 30.14 in 10.0 mi SSW 3.5 mph - N/A   Clear